Weather in Ulubey

Turkey     38°25′01″N   29°17′27″E
temp.,
°C
wind,
m/s
gust,
m/s
humid.,
%
clouds,
%
prec.,
mm/h
press.,
hPa
HPBL,
m
1 august, sun
sun100:00+24ne48310 0.0 1010106
03:00+23ne45320 0.0 101159
06:00+21nne33380 0.0 101126
09:00+28ne35280 0.0 1011479
12:00+34nne67140 0.0 10093191
15:00+36nne78135 0.0 10073750
18:00+34nne88144 0.0 10073509
21:00+28nne612210 0.0 1009267
2 august, mon
mon200:00+23nne45290 0.0 101158
03:00+21nne33330 0.0 101130
06:00+19nne34370 0.0 101134
09:00+26nne34250 0.0 1011418
12:00+34nne68110 0.0 10092480
15:00+37nne8980 0.0 10083041
18:00+35nne8990 0.0 10082698
21:00+27nne45180 0.0 101049
3 august, tue
tue300:00+23nne44240 0.0 101232
03:00+22nne33260 0.0 101227
06:00+21n33250 0.0 101322
09:00+29ne34170 0.0 1012320
12:00+37nne57110 0.0 10103185
15:00+39nne6790 0.0 10084008
18:00+38nne77110 0.0 10074142
21:00+29n57210 0.0 101097
4 august, wed
wed400:00+25n34310 0.0 101250
03:00+23nne34360 0.0 101343
06:00+22nne34370 0.0 101349
09:00+30ne56230 0.0 1013572
12:00+36e35130 0.0 10112705
15:00+38ene45100 0.0 10093717
18:00+38ne5496 0.0 10084395
21:00+30ne69190 0.0 1011166
5 august, thu
thu500:00+25ne48360 0.0 1012133
03:00+24nne34380 0.0 101243
06:00+23nne34340 0.0 101255
09:00+29ene55270 0.0 1011517
12:00+35se23170 0.0 10091861
15:00+38s32102 0.0 10064189
18:00+34nne44160 0.0 1005442
21:00+28ne463046 0.0 1008145